| time (UTC) | temp C | wind direction | speed KPH | gust KPH | rain 1hr cm | rain 24hr cm | rain mn cm | humidity % | barometer mb |
| 20260504050306 | 12 | 17 | 16.1 | 25.7 | 0.00 | 0.00 | 0.00 | 85 | 1008.6 |
| 20260504045806 | 12 | 320 | 14.5 | 37.0 | 0.00 | 0.00 | 0.00 | 86 | 1008.5 |
| 20260504045306 | 12 | 328 | 12.9 | 22.5 | 0.00 | 0.00 | 0.00 | 87 | 1008.4 |
| 20260504044806 | 12 | 343 | 12.9 | 27.4 | 0.00 | 0.00 | 0.00 | 87 | 1008.3 |
| 20260504044306 | 12 | 317 | 12.9 | 22.5 | 0.00 | 0.00 | 0.00 | 87 | 1008.3 |
| 20260504043806 | 12 | 304 | 14.5 | 27.4 | 0.00 | 0.00 | 0.00 | 87 | 1008.4 |
| 20260504043306 | 12 | 317 | 16.1 | 24.1 | 0.00 | 0.00 | 0.00 | 85 | 1008.3 |
| 20260504042806 | 12 | 348 | 14.5 | 37.0 | 0.00 | 0.00 | 0.00 | 85 | 1008.2 |
| 20260504042306 | 12 | 333 | 14.5 | 30.6 | 0.00 | 0.00 | 0.00 | 86 | 1008.2 |
| 20260504041806 | 12 | 328 | 14.5 | 24.1 | 0.00 | 0.00 | 0.00 | 86 | 1008.1 |
| 20260504041306 | 12 | 327 | 14.5 | 25.7 | 0.00 | 0.00 | 0.00 | 87 | 1008.1 |
| 20260504040806 | 12 | 325 | 11.3 | 25.7 | 0.00 | 0.00 | 0.00 | 87 | 1008.1 |
| 20260504040306 | 12 | 355 | 12.9 | 22.5 | 0.00 | 0.00 | 0.00 | 89 | 1008.1 |
| 20260504035807 | 12 | 272 | 14.5 | 27.4 | 0.00 | 0.00 | 0.00 | 88 | 1008.0 |
| 20260504035306 | 12 | 314 | 12.9 | 27.4 | 0.00 | 0.00 | 0.00 | 90 | 1008.1 |
| 20260504034806 | 11 | 355 | 12.9 | 19.3 | 0.00 | 0.00 | 0.00 | 91 | 1008.1 |
| 20260504034306 | 11 | 339 | 12.9 | 22.5 | 0.00 | 0.00 | 0.00 | 90 | 1008.3 |
| 20260504033806 | 11 | 317 | 14.5 | 24.1 | 0.00 | 0.00 | 0.00 | 88 | 1008.4 |
| 20260504033306 | 12 | 355 | 17.7 | 29.0 | 0.00 | 0.00 | 0.00 | 87 | 1008.4 |
| 20260504032806 | 12 | 296 | 16.1 | 35.4 | 0.00 | 0.00 | 0.00 | 85 | 1008.4 |
| 20260504032306 | 12 | 302 | 12.9 | 25.7 | 0.00 | 0.00 | 0.00 | 83 | 1008.4 |
| 20260504031806 | 12 | 344 | 12.9 | 19.3 | 0.00 | 0.00 | 0.00 | 84 | 1008.3 |
| 20260504031306 | 12 | 0 | 16.1 | 24.1 | 0.00 | 0.00 | 0.00 | 84 | 1008.3 |
| 20260504030806 | 12 | 344 | 16.1 | 27.4 | 0.00 | 0.00 | 0.00 | 84 | 1008.3 |
| 20260504030306 | 12 | 331 | 16.1 | 27.4 | 0.00 | 0.00 | 0.00 | 87 | 1008.4 |
| 20260504025806 | 11 | 321 | 16.1 | 32.2 | 0.00 | 0.00 | 0.00 | 87 | 1008.4 |
| 20260504025306 | 11 | 302 | 14.5 | 30.6 | 0.00 | 0.00 | 0.00 | 88 | 1008.5 |
| 20260504024806 | 11 | 355 | 11.3 | 25.7 | 0.00 | 0.00 | 0.00 | 87 | 1008.8 |
| 20260504024306 | 11 | 321 | 12.9 | 19.3 | 0.00 | 0.00 | 0.00 | 88 | 1008.7 |
| 20260504023806 | 11 | 315 | 12.9 | 27.4 | 0.00 | 0.00 | 0.00 | 88 | 1008.9 |
| 20260504023306 | 11 | 333 | 12.9 | 25.7 | 0.00 | 0.00 | 0.00 | 86 | 1008.9 |
| 20260504022807 | 11 | 343 | 12.9 | 24.1 | 0.00 | 0.00 | 0.00 | 85 | 1009.0 |
| 20260504022306 | 11 | 284 | 11.3 | 20.9 | 0.00 | 0.00 | 0.00 | 87 | 1009.0 |
| 20260504021806 | 11 | 306 | 14.5 | 22.5 | 0.00 | 0.00 | 0.00 | 87 | 1009.2 |
| 20260504021307 | 11 | 5 | 14.5 | 25.7 | 0.00 | 0.00 | 0.00 | 87 | 1009.3 |
| 20260504020807 | 11 | 315 | 12.9 | 24.1 | 0.00 | 0.00 | 0.00 | 86 | 1009.5 |
| 20260504020307 | 11 | 13 | 9.7 | 24.1 | 0.00 | 0.00 | 0.00 | 86 | 1009.5 |
| 20260504015807 | 11 | 15 | 11.3 | 16.1 | 0.00 | 0.00 | 0.00 | 86 | 1009.4 |
| 20260504014807 | 11 | 351 | 11.3 | 20.9 | 0.00 | 0.00 | 0.00 | 87 | 1009.6 |
| 20260504014307 | 11 | 0 | 11.3 | 24.1 | 0.00 | 0.00 | 0.00 | 87 | 1009.6 |
| 20260504013807 | 11 | 343 | 11.3 | 20.9 | 0.00 | 0.00 | 0.00 | 88 | 1009.7 |
| 20260504013307 | 10 | 0 | 12.9 | 16.1 | 0.00 | 0.00 | 0.00 | 88 | 1009.7 |
| 20260504012807 | 10 | 355 | 12.9 | 30.6 | 0.00 | 0.00 | 0.00 | 88 | 1009.9 |
| 20260504012307 | 10 | 340 | 12.9 | 24.1 | 0.00 | 0.08 | 0.00 | 88 | 1010.0 |
| 20260504011807 | 10 | 338 | 12.9 | 19.3 | 0.00 | 0.08 | 0.00 | 88 | 1010.0 |
| 20260504011307 | 10 | 334 | 12.9 | 19.3 | 0.00 | 0.08 | 0.00 | 88 | 1010.0 |
| 20260504010807 | 10 | 326 | 11.3 | 22.5 | 0.00 | 0.08 | 0.00 | 88 | 1010.0 |
| 20260504010307 | 10 | 346 | 11.3 | 19.3 | 0.00 | 0.08 | 0.00 | 88 | 1010.0 |
| 20260504005807 | 10 | 329 | 11.3 | 29.0 | 0.00 | 0.08 | 0.00 | 88 | 1010.0 |
| 20260504005307 | 10 | 15 | 11.3 | 24.1 | 0.00 | 0.08 | 0.00 | 89 | 1009.9 |
| 20260504004807 | 10 | 348 | 11.3 | 20.9 | 0.00 | 0.08 | 0.00 | 89 | 1009.9 |
| 20260504004307 | 9 | 306 | 11.3 | 25.7 | 0.00 | 0.08 | 0.00 | 90 | 1009.9 |
| 20260504003807 | 9 | 13 | 9.7 | 19.3 | 0.00 | 0.08 | 0.00 | 90 | 1009.9 |
| 20260504003307 | 9 | 39 | 11.3 | 17.7 | 0.00 | 0.08 | 0.00 | 90 | 1010.0 |
| 20260504002807 | 9 | 330 | 11.3 | 25.7 | 0.00 | 0.08 | 0.00 | 89 | 1009.9 |
| 20260504002307 | 9 | 5 | 11.3 | 20.9 | 0.00 | 0.58 | 0.00 | 89 | 1009.9 |
| 20260504001807 | 9 | 347 | 11.3 | 22.5 | 0.00 | 0.58 | 0.00 | 89 | 1009.9 |
| 20260504001307 | 9 | 47 | 11.3 | 17.7 | 0.00 | 0.58 | 0.00 | 89 | 1009.8 |
| 20260504000807 | 9 | 5 | 12.9 | 27.4 | 0.00 | 0.58 | 0.00 | 88 | 1009.8 |
| 20260504000307 | 9 | 327 | 11.3 | 25.7 | 0.00 | 0.58 | 0.00 | 89 | 1009.8 |
| 20260503235807 | 9 | 340 | 11.3 | 20.9 | 0.00 | 0.58 | 0.00 | 89 | 1009.7 |
| 20260503235307 | 9 | 338 | 12.9 | 24.1 | 0.00 | 0.58 | 0.00 | 90 | 1009.7 |
| 20260503234807 | 8 | 348 | 12.9 | 30.6 | 0.00 | 0.58 | 0.00 | 89 | 1009.7 |
| 20260503234307 | 8 | 327 | 12.9 | 25.7 | 0.00 | 0.58 | 0.00 | 89 | 1009.7 |
| 20260503233807 | 8 | 5 | 14.5 | 20.9 | 0.00 | 0.58 | 0.00 | 90 | 1009.8 |
| 20260503233307 | 8 | 329 | 14.5 | 27.4 | 0.00 | 0.58 | 0.00 | 89 | 1009.7 |
| 20260503232807 | 8 | 342 | 12.9 | 24.1 | 0.00 | 0.58 | 0.00 | 90 | 1009.7 |
| 20260503232307 | 8 | 0 | 14.5 | 29.0 | 0.00 | 1.37 | 0.00 | 89 | 1009.8 |
| 20260503231807 | 8 | 322 | 14.5 | 27.4 | 0.00 | 1.37 | 0.00 | 89 | 1009.8 |
| 20260503231307 | 8 | 340 | 14.5 | 25.7 | 0.00 | 1.37 | 0.00 | 89 | 1009.9 |
| 20260503230807 | 8 | 350 | 16.1 | 27.4 | 0.00 | 1.37 | 0.00 | 89 | 1009.7 |
| 20260503230307 | 8 | 310 | 16.1 | 30.6 | 0.00 | 1.37 | 0.00 | 89 | 1009.9 |
| 20260503225807 | 8 | 315 | 14.5 | 25.7 | 0.00 | 1.37 | 0.00 | 89 | 1009.8 |
| 20260503225307 | 8 | 0 | 12.9 | 24.1 | 0.00 | 1.37 | 0.00 | 89 | 1009.8 |
| 20260503224807 | 8 | 334 | 12.9 | 19.3 | 0.00 | 1.37 | 0.00 | 89 | 1009.9 |
| 20260503224307 | 8 | 346 | 12.9 | 20.9 | 0.00 | 1.37 | 0.00 | 89 | 1009.8 |
| 20260503223807 | 8 | 330 | 11.3 | 25.7 | 0.00 | 1.37 | 0.00 | 89 | 1009.8 |
| 20260503223307 | 8 | 312 | 11.3 | 19.3 | 0.00 | 1.37 | 0.00 | 89 | 1009.7 |
| 20260503222807 | 8 | 336 | 12.9 | 24.1 | 0.00 | 1.37 | 0.00 | 89 | 1009.7 |
| 20260503222307 | 8 | 320 | 11.3 | 25.7 | 0.00 | 1.75 | 0.00 | 89 | 1009.7 |
| 20260503221807 | 8 | 345 | 11.3 | 20.9 | 0.00 | 1.75 | 0.00 | 88 | 1009.6 |
| 20260503221307 | 8 | 5 | 11.3 | 22.5 | 0.00 | 1.75 | 0.00 | 88 | 1009.7 |
| 20260503220807 | 8 | 336 | 11.3 | 20.9 | 0.00 | 1.75 | 0.00 | 88 | 1009.6 |
| 20260503220307 | 8 | 355 | 11.3 | 19.3 | 0.00 | 1.75 | 0.00 | 88 | 1009.6 |
| 20260503215807 | 8 | 319 | 11.3 | 24.1 | 0.00 | 1.75 | 0.00 | 88 | 1009.7 |
| 20260503215307 | 8 | 329 | 11.3 | 22.5 | 0.00 | 1.75 | 0.00 | 87 | 1009.6 |
| 20260503214807 | 8 | 333 | 11.3 | 22.5 | 0.00 | 1.75 | 0.00 | 88 | 1009.7 |
| 20260503214307 | 8 | 346 | 9.7 | 22.5 | 0.00 | 1.75 | 0.00 | 88 | 1009.6 |
| 20260503213807 | 8 | 281 | 8.0 | 22.5 | 0.00 | 1.75 | 0.00 | 88 | 1009.6 |
| 20260503213307 | 8 | 40 | 9.7 | 17.7 | 0.00 | 1.75 | 0.00 | 87 | 1009.6 |
| 20260503212807 | 8 | 348 | 9.7 | 19.3 | 0.00 | 1.75 | 0.00 | 87 | 1009.6 |
| 20260503212307 | 8 | 355 | 11.3 | 22.5 | 0.00 | 2.21 | 0.00 | 87 | 1009.6 |
| 20260503211807 | 8 | 0 | 9.7 | 19.3 | 0.00 | 2.21 | 0.00 | 87 | 1009.5 |
| 20260503211307 | 8 | 348 | 9.7 | 19.3 | 0.00 | 2.21 | 0.00 | 87 | 1009.4 |
| 20260503210807 | 8 | 327 | 11.3 | 22.5 | 0.00 | 2.21 | 0.00 | 87 | 1009.3 |
| 20260503210307 | 8 | 355 | 11.3 | 22.5 | 0.00 | 2.21 | 0.00 | 87 | 1009.2 |
| 20260503205807 | 8 | 0 | 9.7 | 19.3 | 0.00 | 2.21 | 0.00 | 86 | 1009.3 |
| 20260503205307 | 8 | 350 | 9.7 | 19.3 | 0.00 | 2.21 | 0.00 | 86 | 1009.1 |
| 20260503204807 | 8 | 355 | 11.3 | 22.5 | 0.00 | 2.21 | 0.00 | 86 | 1009.2 |
| 20260503204307 | 8 | 342 | 11.3 | 27.4 | 0.00 | 2.21 | 0.00 | 86 | 1009.3 |
| 20260503203807 | 8 | 322 | 9.7 | 19.3 | 0.00 | 2.21 | 0.00 | 86 | 1009.2 |
| 20260503203307 | 8 | 5 | 9.7 | 24.1 | 0.00 | 2.21 | 0.00 | 85 | 1009.3 |
| 20260503202807 | 8 | 335 | 9.7 | 17.7 | 0.00 | 2.21 | 0.00 | 85 | 1009.2 |
| 20260503202307 | 8 | 323 | 11.3 | 22.5 | 0.00 | 2.21 | 0.00 | 85 | 1009.1 |
| 20260503201807 | 8 | 27 | 9.7 | 20.9 | 0.00 | 2.21 | 0.00 | 85 | 1009.0 |
| 20260503201307 | 8 | 355 | 8.0 | 16.1 | 0.00 | 2.21 | 0.00 | 85 | 1009.0 |
| 20260503200807 | 8 | 13 | 8.0 | 19.3 | 0.00 | 2.21 | 0.00 | 85 | 1009.0 |
| 20260503200307 | 8 | 336 | 8.0 | 20.9 | 0.00 | 2.21 | 0.00 | 84 | 1009.1 |
| 20260503195807 | 8 | 341 | 8.0 | 16.1 | 0.00 | 2.21 | 0.00 | 84 | 1009.1 |
| 20260503195307 | 8 | 344 | 8.0 | 17.7 | 0.00 | 2.21 | 0.00 | 84 | 1009.1 |
| 20260503194807 | 8 | 324 | 9.7 | 17.7 | 0.00 | 2.21 | 0.00 | 84 | 1009.2 |
| 20260503194307 | 8 | 22 | 9.7 | 19.3 | 0.00 | 2.21 | 0.00 | 83 | 1009.2 |
| 20260503193807 | 8 | 329 | 9.7 | 17.7 | 0.00 | 2.21 | 0.00 | 83 | 1009.2 |
| 20260503193307 | 8 | 331 | 9.7 | 25.7 | 0.00 | 2.21 | 0.00 | 82 | 1009.4 |
| 20260503192807 | 8 | 0 | 9.7 | 17.7 | 0.00 | 2.21 | 0.00 | 82 | 1009.2 |
| 20260503192307 | 8 | 323 | 8.0 | 17.7 | 0.00 | 2.31 | 0.00 | 82 | 1009.3 |
| 20260503191807 | 8 | 305 | 9.7 | 16.1 | 0.00 | 2.31 | 0.00 | 82 | 1009.4 |
| 20260503191307 | 8 | 320 | 11.3 | 22.5 | 0.00 | 2.31 | 0.00 | 82 | 1009.3 |
| 20260503190807 | 8 | 326 | 9.7 | 20.9 | 0.00 | 2.31 | 0.00 | 82 | 1009.5 |
| 20260503190307 | 8 | 322 | 9.7 | 22.5 | 0.00 | 2.31 | 0.00 | 82 | 1009.3 |
| 20260503185807 | 8 | 355 | 9.7 | 19.3 | 0.00 | 2.31 | 0.00 | 82 | 1009.4 |
| 20260503185307 | 8 | 308 | 9.7 | 25.7 | 0.00 | 2.31 | 0.00 | 81 | 1009.4 |
| 20260503184807 | 9 | 344 | 9.7 | 20.9 | 0.00 | 2.31 | 0.00 | 81 | 1009.4 |
| 20260503184307 | 9 | 9 | 9.7 | 25.7 | 0.00 | 2.31 | 0.00 | 81 | 1009.4 |
| 20260503183807 | 9 | 0 | 9.7 | 20.9 | 0.00 | 2.31 | 0.00 | 81 | 1009.4 |
| 20260503183307 | 8 | 355 | 9.7 | 20.9 | 0.00 | 2.31 | 0.00 | 81 | 1009.5 |
| 20260503182807 | 8 | 355 | 9.7 | 24.1 | 0.00 | 2.31 | 0.00 | 82 | 1009.5 |
| 20260503182307 | 8 | 10 | 9.7 | 17.7 | 0.00 | 3.10 | 0.00 | 82 | 1009.5 |
| 20260503181807 | 8 | 21 | 8.0 | 17.7 | 0.00 | 3.10 | 0.00 | 82 | 1009.6 |
| 20260503181308 | 8 | 0 | 9.7 | 16.1 | 0.00 | 3.10 | 0.00 | 82 | 1009.7 |
| 20260503180807 | 8 | 338 | 9.7 | 19.3 | 0.00 | 3.10 | 0.00 | 82 | 1009.7 |
| 20260503180307 | 8 | 327 | 9.7 | 16.1 | 0.00 | 3.10 | 0.00 | 82 | 1009.7 |
| 20260503175807 | 8 | 31 | 9.7 | 19.3 | 0.00 | 3.10 | 0.00 | 82 | 1009.8 |
| 20260503175307 | 8 | 343 | 9.7 | 20.9 | 0.00 | 3.10 | 0.00 | 82 | 1009.8 |
| 20260503174807 | 8 | 0 | 9.7 | 27.4 | 0.00 | 3.10 | 0.00 | 82 | 1009.7 |
| 20260503174307 | 8 | 346 | 9.7 | 24.1 | 0.00 | 3.10 | 0.00 | 82 | 1009.8 |
| 20260503173807 | 8 | 5 | 9.7 | 22.5 | 0.00 | 3.10 | 0.00 | 82 | 1009.8 |
| 20260503173307 | 8 | 19 | 9.7 | 17.7 | 0.00 | 3.10 | 0.00 | 81 | 1009.7 |
| 20260503172807 | 8 | 331 | 8.0 | 20.9 | 0.00 | 3.10 | 0.00 | 81 | 1009.8 |
| 20260503172307 | 8 | 30 | 8.0 | 24.1 | 0.00 | 3.10 | 0.00 | 82 | 1010.0 |
| 20260503171807 | 8 | 0 | 8.0 | 20.9 | 0.00 | 3.10 | 0.00 | 81 | 1010.0 |
| 20260503171307 | 8 | 21 | 9.7 | 16.1 | 0.00 | 3.10 | 0.00 | 81 | 1010.0 |
| 20260503170807 | 8 | 327 | 9.7 | 16.1 | 0.00 | 3.10 | 0.00 | 81 | 1010.1 |
| 20260503170307 | 8 | 323 | 9.7 | 19.3 | 0.00 | 3.10 | 0.00 | 81 | 1010.1 |
| 20260503150808 | 8 | 29 | 6.4 | 16.1 | 0.00 | 3.15 | 0.00 | 81 | 1010.5 |
| 20260503150308 | 8 | 28 | 6.4 | 14.5 | 0.00 | 3.15 | 0.00 | 81 | 1010.7 |
| 20260503140308 | 9 | 0 | 6.4 | 16.1 | 0.00 | 3.25 | 0.00 | 81 | 1011.0 |
| 20260503131308 | 9 | 350 | 8.0 | 16.1 | 0.00 | 3.28 | 3.28 | 80 | 1011.3 |
| 20260503130808 | 10 | 339 | 6.4 | 17.7 | 0.00 | 3.28 | 3.28 | 80 | 1011.3 |
| 20260503130308 | 10 | 14 | 6.4 | 12.9 | 0.00 | 3.28 | 3.28 | 80 | 1011.3 |
| 20260503110808 | 11 | 337 | 9.7 | 14.5 | 0.00 | 3.28 | 3.28 | 79 | 1011.5 |
| 20260503110308 | 11 | 303 | 9.7 | 25.7 | 0.00 | 3.28 | 3.28 | 78 | 1011.4 |
| 20260503090308 | 11 | 336 | 8.0 | 19.3 | 0.00 | 3.38 | 3.28 | 80 | 1011.0 |
| 20260503081308 | 12 | 272 | 8.0 | 12.9 | 0.00 | 3.48 | 3.28 | 78 | 1009.9 |
| 20260503080808 | 12 | 321 | 8.0 | 16.1 | 0.00 | 3.48 | 3.28 | 78 | 1009.9 |
| 20260503080308 | 12 | 316 | 8.0 | 16.1 | 0.00 | 3.48 | 3.28 | 78 | 1009.8 |
| 20260503072808 | 12 | 325 | 8.0 | 14.5 | 0.00 | 3.48 | 3.28 | 77 | 1009.6 |
| 20260503072308 | 12 | 336 | 8.0 | 17.7 | 0.00 | 3.63 | 3.28 | 77 | 1009.6 |
| 20260503071809 | 12 | 315 | 6.4 | 12.9 | 0.00 | 3.63 | 3.28 | 77 | 1009.4 |
| 20260503071308 | 12 | 355 | 8.0 | 16.1 | 0.00 | 3.63 | 3.28 | 76 | 1009.4 |
| 20260503070808 | 13 | 0 | 8.0 | 17.7 | 0.00 | 3.63 | 3.28 | 76 | 1009.4 |
| 20260503070308 | 13 | 15 | 9.7 | 19.3 | 0.00 | 3.63 | 3.28 | 76 | 1009.4 |
| 20260503060309 | 12 | 342 | 9.7 | 17.7 | 0.00 | 3.63 | 3.28 | 83 | 1009.2 |
| 20260503054809 | 13 | 340 | 9.7 | 14.5 | 0.00 | 3.63 | 3.28 | 84 | 1009.2 |
| 20260503054309 | 13 | 339 | 9.7 | 17.7 | 0.00 | 3.63 | 3.28 | 84 | 1009.3 |
| 20260503053809 | 13 | 350 | 9.7 | 19.3 | 0.00 | 3.63 | 3.28 | 84 | 1009.3 |
| 20260503053309 | 12 | 336 | 8.0 | 19.3 | 0.00 | 3.63 | 3.28 | 84 | 1009.5 |
| 20260503052809 | 12 | 336 | 8.0 | 17.7 | 0.00 | 3.63 | 3.28 | 84 | 1009.3 |
| 20260503052309 | 12 | 355 | 11.3 | 16.1 | 0.00 | 3.63 | 3.28 | 85 | 1009.4 |